Location: Ariel
(45.9570°N, 122.5700°W)
Time: 23:39:05
(UTC-07:00)

Transit 4A - Pass Details

Date: 26 July 2019
Orbit: 863 x 981 km, 66.8° (Epoch: 24 August)

Event Time Altitude Azimuth Distance (km) Brightness Sun altitude
Rises 03:32:31 0° 258° (WSW) 3,669 - -17.7°
Exits shadow 03:35:02 - 268° (W) 2,893 10.1 -17.5°
Reaches altitude 10° 03:35:36 10° 271° (W) 2,731 10.0 -17.4°
Maximum altitude 03:40:43 24° 324° (NW) 1,900 9.7 -16.9°
Drops below altitude 10° 03:45:50 10° 18° (NNE) 2,736 11.5 -16.4°
Sets 03:48:57 0° 32° (NNE) 3,677 12.8 -16.1°
